World > North America > United States > South Carolina > Santee   Town of Santee, South Carolina

Santee, SC Hourly Weather Conditions

Feedback E-mail the Weather

Quick WX

Santee, SC Weather Maps

°F °C°F °C
Santee Weather Map
UTC Time: 2/4/2023, 09:53
Your Time:

Santee, SC Regional Weather

Expires:202302041000;;776014
ASUS42 KCAE 040910
RWRCAE
REGIONAL WEATHER ROUNDUP
NATIONAL WEATHER SERVICE COLUMBIA SC
400 AM EST SAT FEB 04 2023

NOTE: "FAIR" INDICATES FEW OR NO CLOUDS BELOW 12,000 FEET WITH NO
SIGNIFICANT WEATHER AND/OR OBSTRUCTIONS TO VISIBILITY.

NOT ALL STATIONS ARE QUALITY CONTROLLED BY THE NATIONAL 
WEATHER SERVICE. USE DATA WITH CAUTION...ESPECIALLY 
DEWPOINT OBSERVATIONS.


SCZ001>059-115-116-135>137-GAZ040-063>065-077-041000-
...UPSTATE SOUTH CAROLINA...
  
CITY           SKY/WX    TMP DP  RH WIND       PRES   REMARKS
ANDERSON       CLEAR     29  19  66 NE6       30.48R WCI  23          
LIBERTY        CLEAR     27  21  77 CALM      30.46S                  
SPARTANBURG    CLEAR     30  14  51 E3        30.49F                  
CLEMSON        CLEAR     30  20  66 CALM      30.48R                  
GREENVILLE     CLEAR     32  14  47 E7        30.48R WCI  26          
GREENWOOD      CLEAR     30  17  58 NE6       30.51R WCI  24          
GREER          CLEAR     29  14  53 E6        30.49R WCI  23          
ROCK HILL      CLEAR     30  12  47 CALM      30.51R                  
LAURENS        CLEAR     32  18  55 E6        30.51R WCI  26          


...CENTRAL SOUTH CAROLINA...
  
CITY           SKY/WX    TMP DP  RH WIND       PRES   REMARKS
COLUMBIA APT   CLEAR     35  14  42 NE6       30.52R WCI  30          
COLUMBIA OWENS CLEAR     33  16  49 VRB3      30.54R                  
MCENTIRE ANGB  CLEAR     33  13  44 NE9       30.50R WCI  25          
ORANGEBURG     CLEAR     36  16  44 NE9       30.51R WCI  29          
SUMTER SHAW    CLEAR     31  13  47 NE12      30.51R WCI  22          
NEWBERRY       CLEAR     32  14  47 E7        30.55R WCI  26          
AIKEN          FAIR      32  19  58 NE8       30.50R WCI  25          
BARNWELL       FAIR      34  23  64 NE7       30.50R WCI  28          
MANNING        FAIR      32  14  47 NE7       30.53R WCI  26          
CAMDEN         FAIR      30  12  47 CALM      30.54R                  
LANCASTER      CLEAR     28  14  54 CALM      30.52R                  
WINNSBORO      CLEAR     32  18  55 NE5       30.52R WCI  27          


...EASTERN AND COASTAL SOUTH CAROLINA...
  
CITY           SKY/WX    TMP DP  RH WIND       PRES   REMARKS
MYRTLE BEACH   CLEAR     33  16  49 N8        30.53R WCI  26          
N MYRTLE BCH   CLEAR     33  15  47 NE13G22   30.52R WCI  24          
CONWAY         FAIR      32  18  55 N7        30.53R WCI  26          
MARION         FAIR      32   9  37 NE8       30.54R WCI  25          
HARTSVILLE     MOCLDY    28  12  50 NE8       30.52R WCI  20          
FLORENCE       CLEAR     30  14  51 NE8       30.54R WCI  22          
DARLINGTON     CLEAR     29  17  61 NE8       30.54R WCI  21          
CHARLESTON APT CLEAR     37  21  52 NE9       30.49R WCI  30          
MOUNT PLEASANT FAIR      36  23  60 VRB7      30.48R WCI  30          
WALTERBORO     CLEAR     36  21  55 NE12      30.51R WCI  27          
HILTON HEAD    CLEAR     43  27  52 NE15G23   30.46R                  


...EASTERN GEORGIA...
  
CITY           SKY/WX    TMP DP  RH WIND       PRES   REMARKS
AUGUSTA BUSH F CLEAR     33  21  61 NE6       30.50R WCI  28          
AUGUSTA DANIEL CLEAR     36  21  54 NE7       30.50R WCI  30          
THOMSON        CLEAR     29  26  88 E5        30.49R WCI  24          
CLAXTON        FAIR      41  30  66 NE6       30.46R                  
SYLVANIA       CLEAR     38  29  70 NE3       30.48R                  
STATESBORO     CLEAR     37  29  73 NE5       30.47R WCI  34          
SAVANNAH       CLEAR     40  28  62 NE8       30.44R WCI  34          


...SOUTHERN NORTH CAROLINA...
  
CITY           SKY/WX    TMP DP  RH WIND       PRES   REMARKS
CHARLOTTE      CLEAR     28  11  48 VRB3      30.50R                  
MONROE         CLEAR     28  12  51 NE3       30.50R                  
WADESBORO      CLEAR     28  10  45 NE5       30.54R WCI  23          
ROCKINGHAM     CLEAR     29  10  44 NE5       30.54R WCI  24          
RUTHERFORDTON  CLEAR     27  16  63 CALM      30.49R                  
ASHEVILLE      CLEAR     24  11  57 N6        30.43R WCI  17          

$$
  

SKY/WX - Weather  TMP - Temperature  DP - Dew Point  RH - Humidity
WIND - Wind Direction/Speed PRES - Barometric Pressure VSB - Visibility
WCI - Wind Chill Index E13G22 Wind - East Wind 13 mph/Gusts of 22 mph

Trending Headlines

Trending Entertainment Headlines

Santee Radar Loop

Use the map search tool if you want to place a location marker on the radar map...

Santee Quick Facts

National Two Day Weather Forecast


E-mail the Santee Weather Forecast

Voice your opinion or tell us about page issues...